铱星星座 115星 (IRIDIUM 115)

导读

IRIDIUM 115是美国铱星系统(Iridium)的新一代通信卫星,于2017年6月25日发射升空,属于低轨移动通信星座的更新卫星。它运行在近圆形近地轨道,轨道倾角约86°,单星均匀分布于轨道面,为全球提供无缝语音通信和数据连接服务,替换第一代铱星卫星,保障星座的全球覆盖能力和通信服务稳定性。

基本信息
目录编号:
42806
目录名称:
IRIDIUM 115
国际标识:
2017-039D
轨道中心:
EARTH
卫星名称:
铱星星座 115星
卫星全名:
铱星星座 115星 (IRIDIUM 115)
卫星状态:
在轨 (已飞行3319 天)
发射日期:
2017-06-25 UTC
国别 :
美国 (US)
星等 :
--
轨道信息
数据来源 国际轨道数据 AOE轨道数据
星历时间 2026-07-27T14:16:03+0800
16小时前
查看轨道信息
2026-07-22T03:00:00+0800
6天前
查看轨道信息
半长轴 7125.808km 7125.82km
偏心率 0.0002405 0.0002559
轨道倾角 86.452° 86.451°
近地点辐角 98.464° 100.996°
升交点赤经 305.343° 307.628°
平近点角 261.684° 298.903°
近地点 745.957km 745.859km
远地点 749.385km 749.507km
周期 99.772分钟 99.773分钟
每日圈数 14.432835 14.432797
详细信息
平衡模式:
三轴稳定
覆盖范围:
全球
运营商:
铱星通信公司
运营商所在国:
美国
制造商(研发单位):
阿莱尼亚宇航公司
制造商所在国:
意大利
使用方式:
暂无
卫星简介
铱星(Iridium)是由共66个运作中的通信卫星组成的卫星通信系统。这个系统原本规划77个通信卫星,所以用原子序数为77的铱元素来命名。铱卫星允许人们使用手持型电子设备进行全球性的语音及数据通讯。该卫星仍在工作。
2D轨道图
3D轨道图
轨道高度分析图
轨道倾角分析图
轨道综合分析图
查看轨道综合分析图